TimeCDT,TemperatureF,Dew PointF,Humidity,Sea Level PressureIn,VisibilityMPH,Wind Direction,Wind SpeedMPH,Gust SpeedMPH,PrecipitationIn,Events,Conditions,WindDirDegrees,DateUTC
12:53 AM,72.0,64.9,78,29.78,10.0,SW,5.8,-,N/A,,Clear,230,2013-08-07 05:53:00
1:53 AM,71.1,64.9,81,29.77,10.0,NW,5.8,-,0.00,,Clear,320,2013-08-07 06:53:00
2:53 AM,71.1,64.9,81,29.82,10.0,North,11.5,-,N/A,,Partly Cloudy,360,2013-08-07 07:53:00
3:53 AM,69.1,64.0,84,29.78,10.0,North,5.8,-,N/A,,Clear,350,2013-08-07 08:53:00
4:53 AM,68.0,64.0,87,29.79,10.0,NNW,4.6,-,N/A,,Clear,340,2013-08-07 09:53:00
5:53 AM,68.0,64.0,87,29.83,10.0,South,4.6,-,N/A,,Clear,180,2013-08-07 10:53:00
6:53 AM,68.0,64.9,90,29.85,10.0,Calm,Calm,-,N/A,,Clear,0,2013-08-07 11:53:00
7:53 AM,69.1,64.9,87,29.88,10.0,NNW,4.6,-,N/A,,Clear,330,2013-08-07 12:53:00
8:53 AM,73.0,64.0,73,29.89,10.0,NNE,12.7,-,N/A,,Clear,20,2013-08-07 13:53:00
9:53 AM,75.0,66.0,73,29.89,10.0,NE,13.8,-,N/A,,Clear,40,2013-08-07 14:53:00
10:53 AM,78.1,66.0,66,29.88,10.0,ENE,12.7,-,N/A,,Clear,70,2013-08-07 15:53:00
11:53 AM,81.0,64.0,56,29.87,10.0,ENE,13.8,19.6,N/A,,Clear,70,2013-08-07 16:53:00
12:53 PM,84.9,64.0,49,29.86,10.0,ENE,11.5,-,N/A,,Partly Cloudy,70,2013-08-07 17:53:00
1:53 PM,84.9,64.0,49,29.86,10.0,East,9.2,19.6,N/A,,Clear,80,2013-08-07 18:53:00
2:53 PM,88.0,63.0,43,29.83,10.0,East,11.5,-,N/A,,Partly Cloudy,90,2013-08-07 19:53:00
3:53 PM,89.1,62.1,40,29.83,10.0,East,9.2,18.4,N/A,,Clear,100,2013-08-07 20:53:00
4:53 PM,89.1,63.0,42,29.79,10.0,ESE,12.7,18.4,N/A,,Partly Cloudy,120,2013-08-07 21:53:00
5:53 PM,89.1,62.1,40,29.77,10.0,ESE,12.7,18.4,N/A,,Mostly Cloudy,120,2013-08-07 22:53:00
6:53 PM,86.0,64.0,48,29.76,10.0,ESE,12.7,-,N/A,,Scattered Clouds,120,2013-08-07 23:53:00
7:53 PM,78.1,62.1,58,29.79,10.0,ENE,15.0,25.3,N/A,,Mostly Cloudy,60,2013-08-08 00:53:00
8:36 PM,73.4,60.8,65,29.94,9.0,NE,8.1,17.3,0.03,Rain-Thunderstorm,Light Rain,40,2013-08-08 01:36:00
8:53 PM,71.1,64.0,78,29.89,10.0,WNW,40.3,51.8,0.04,Rain-Thunderstorm,Light Rain,300,2013-08-08 01:53:00
9:02 PM,66.2,62.6,88,30.06,1.8,NW,24.2,50.6,0.05,Rain-Thunderstorm,Heavy Thunderstorms and Rain,320,2013-08-08 02:02:00
9:09 PM,64.4,62.6,94,30.03,0.8,NW,34.5,44.9,0.47,Rain-Thunderstorm,Heavy Thunderstorms and Rain,320,2013-08-08 02:09:00
9:17 PM,64.4,62.6,94,30.02,1.0,NNW,24.2,44.9,0.91,Rain-Thunderstorm,Heavy Thunderstorms and Rain,330,2013-08-08 02:17:00
9:22 PM,66.2,62.6,88,30.02,2.0,NNW,29.9,39.1,1.01,Rain-Thunderstorm,Heavy Thunderstorms and Rain,340,2013-08-08 02:22:00
9:32 PM,64.4,62.6,94,30.01,3.0,North,23.0,33.4,1.14,Rain-Thunderstorm,Heavy Thunderstorms and Rain,360,2013-08-08 02:32:00
9:53 PM,66.0,62.1,87,29.87,10.0,NNE,18.4,29.9,1.21,Rain-Thunderstorm,Light Rain,20,2013-08-08 02:53:00
10:20 PM,64.4,62.6,94,30.02,10.0,North,10.4,-,N/A,Thunderstorm,Mostly Cloudy,10,2013-08-08 03:20:00
10:53 PM,66.9,61.0,81,29.96,6.0,WSW,9.2,-,0.04,Rain-Thunderstorm,Heavy Rain,250,2013-08-08 03:53:00
11:26 PM,66.2,62.6,88,30.07,5.0,Calm,Calm,-,0.10,Rain,Rain,0,2013-08-08 04:26:00
11:53 PM,64.9,62.1,90,29.92,10.0,NNE,8.1,-,0.16,Rain,Rain,20,2013-08-08 04:53:00